Meteo Giornale » Osservazioni meteo Stati Uniti (USA) » Winslow
ore: 01:56 - Osservazioni Meteo Winslow
Lat. 35° 1' N Lon. 110° 43' W Alt. 1505 metri s.l.m.
15 °C
Sereno
Temp. 24 Ore
14 °C
22 °C
Nord
0 Km/h
Dew point 14 °C
Umidità 93 %
Visibilità 10 Km
Il sole sorge alle ore 05:55
Il sole tramonta alle ore 18:49
| Data e Ora | Cielo e Fenomeni | T °C | DP °C | Um. % | Pres. hPa | Vis. km | Vento km/h | |
|---|---|---|---|---|---|---|---|---|
| Oggi h: 01:56 | Sereno | 15 | 14 | 93 | 1022 | 10 | N 0 | |
| Oggi h: 00:56 | Sereno | 14 | 14 | 100 | 1022 | 10 | O 7.4 | |
| Ieri h: 23:56 | Sereno | 16 | 16 | 100 | 1022 | 10 | N 5.5 | |
| Ieri h: 22:56 | Sereno | 17 | 16 | 93 | 1022 | 10 | N 0 | |
| Ieri h: 21:56 | Sereno | 18 | 16 | 88 | 1022 | 10 | N 0 | |
| Ieri h: 20:56 | Sereno | 18 | 16 | 88 | 1022 | 10 | N 0 | |
| Ieri h: 19:56 | Sereno | 18 | 16 | 88 | 1021 | 10 | N 5.5 | |
| Ieri h: 18:56 | Sereno | 21 | 15 | 68 | 1021 | 10 | E/SE 7.4 | |
| Ieri h: 17:56 | Sereno | 22 | 14 | 60 | 1021 | 10 | SE 11.1 | |
| Ieri h: 16:56 | Molto Nuvoloso | 21 | 14 | 64 | 1021 | 10 | N 11.1 | |
| Ieri h: 15:56 | Sereno | 22 | 15 | 64 | 1022 | 10 | E 18.5 | |
| Ieri h: 14:56 | Sereno | 22 | 14 | 60 | 1022 | 10 | E 11.1 | |
| Ieri h: 13:56 | Sereno | 22 | 15 | 64 | 1023 | 10 | E/SE 22.2 | |
| Ieri h: 12:56 | Sereno | 21 | 15 | 68 | 1023 | 10 | E/SE 20.3 | |
| Ieri h: 11:56 | Sereno | 21 | 16 | 73 | 1023 | 10 | E/SE 25.9 | |
| Ieri h: 10:56 | Sereno | 21 | 16 | 73 | 1023 | 10 | SE 16.7 | |
| Ieri h: 09:56 | Sereno | 20 | 15 | 72 | 1024 | 10 | E/SE 14.8 | |
| Ieri h: 08:56 | Sereno | 19 | 14 | 72 | 1024 | 10 | S 24 | |
| Ieri h: 07:56 | Nuvoloso | 18 | 15 | 82 | 1023 | 10 | S/SO 11.1 | |
| Ieri h: 06:56 | Poco Nuvoloso | 17 | 15 | 88 | 1023 | 10 | N 5.5 | |
| Ieri h: 05:56 | Sereno | 17 | 15 | 88 | 1022 | 10 | S/SE 11.1 | |
| Ieri h: 04:56 | Nuvoloso | 17 | 14 | 82 | 1021 | 10 | E 11.1 | |
| Ieri h: 03:56 | Pioggia | 17 | 14 | 82 | 1022 | 10 | N 0 | |
| Ieri h: 03:33 | Pioggia | 18 | 14 | 77 | 1022 | 11 | NE 9.3 | |
| Ieri h: 03:13 | Temporale nelle vicinanze Pioggia | 18 | 13 | 72 | 1023 | 14 | N 11.1 | |
| Ieri h: 02:56 | Temporale | 18 | 14 | 77 | 1023 | 10 | S/SE 14.8 | |
| Ieri h: 02:53 | Temporale | 18 | 14 | 77 | 1023 | 10 | N 11.1 | |
| Ieri h: 02:41 | Pioggia | 18 | 14 | 77 | 1022 | 10 | O 27.8 | |



